Regional Weather Roundup
Issued by NWS

Home | Current Version | Previous Version | Text Only | Print | Product List | Glossary On
Versions: 1 2 3 4 5 6 7 8 9 10 11 12 13 14 15 16 17 18 19 20 21 22 23 24 25 26 27 28 29 30 31 32 33 34 35 36 37 38 39 40 41 42 43 44 45 46 47 48 49 50
000
ASUS43 KTOP 291808
RWRKS

WEATHER ROUNDUP FOR KANSAS
NATIONAL WEATHER SERVICE GOODLAND KS
100 PM CDT TUE JUL 29 2014

NOTE:  "FAIR" INDICATES FEW OR NO CLOUDS BELOW 12,000 FEET WITH NO
SIGNIFICANT WEATHER AND/OR OBSTRUCTIONS TO VISIBILITY.

KSZ001>006-013>018-027>032-041>047-291900-
NORTHWEST KANSAS

CITY           SKY/WX    TMP DP  RH WIND       PRES   REMARKS
GOODLAND       MOSUNNY   82  63  52 SE9G21    30.20F
6HR MIN TEMP:  59; 6HR MAX TEMP:  83;

HAYS           SUNNY     82  57  42 S3        30.18F
HILL CITY        N/A     84  58  40 MISG      30.18F
6HR MIN TEMP:  59; 6HR MAX TEMP:  85;

RUSSELL        SUNNY     83  59  44 E8        30.16F
6HR MIN TEMP:  61; 6HR MAX TEMP:  84;

$$

KSZ061>065-074>080-084>089-291900-
SOUTHWEST KANSAS

CITY           SKY/WX    TMP DP  RH WIND       PRES   REMARKS
DODGE CITY     PTSUNNY   84  63  49 SW14G23   30.19F
6HR MIN TEMP:  62; 6HR MAX TEMP:  84;

ELKHART          N/A    N/A N/A N/A MISG        N/A
GARDEN CITY    SUNNY     78  63  59 SW15      30.19F
6HR MIN TEMP:  62; 6HR MAX TEMP:  80;

GREAT BEND     SUNNY     82  57  42 S7        30.16F
LIBERAL        CLOUDY    64  59  82 S15       30.22F
PRATT          SUNNY     82  55  39 SW7G16    30.19F
$$

KSZ066>073-081>083-090>101-291900-
SOUTHEAST KANSAS

CITY           SKY/WX    TMP DP  RH WIND       PRES   REMARKS
CHANUTE        CLOUDY    77  61  57 N3        30.19F
6HR MIN TEMP:  65; 6HR MAX TEMP:  79;

COFFEYVILLE    PTSUNNY   79  59  50 W5        30.17F
6HR MIN TEMP:  62; 6HR MAX TEMP:  80;

HUTCHINSON     SUNNY     85  60  42 S8        30.17F
6HR MIN TEMP:  61; 6HR MAX TEMP:  85;

MEDICINE LODGE   N/A     86  60  41 W8        30.15F
NEWTON         MOSUNNY   81  57  44 CALM      30.22F
PARSONS        PTSUNNY   80  60  50 NW5       30.20S
6HR MIN TEMP:  62; 6HR MAX TEMP:  81;

WICHITA INTL   MOSUNNY   84  60  44 SE7       30.16F
6HR MIN TEMP:  65; 6HR MAX TEMP:  85;

WICHITA JABRA  MOSUNNY   83  60  45 CALM      30.17F
6HR MIN TEMP:  61; 6HR MAX TEMP:  85;

WICHITA MCCONL SUNNY     84  58  40 VRB2      30.17F
WINFIELD       SUNNY     87  60  40 SW6       30.17F
6HR MIN TEMP:  65; 6HR MAX TEMP:  87;

$$

KSZ007>012-019>026-033>040-048>060-102>105-291900-
NORTHEAST KANSAS

CITY           SKY/WX    TMP DP  RH WIND       PRES   REMARKS
CONCORDIA      PTSUNNY   74  59  59 VRB5      30.21F
6HR MIN TEMP:  63; 6HR MAX TEMP:  74; 6HR PCP: TRACE;

EMPORIA        PTSUNNY   72  62  71 NE9       30.21F
6HR MIN TEMP:  62; 6HR MAX TEMP:  74;

LAWRENCE       PTSUNNY   82  56  40 NW8       30.18F
6HR MIN TEMP:  59; 6HR MAX TEMP:  83;

MANHATTAN      CLOUDY    70  60  70 W8        30.21F
6HR MIN TEMP:  66; 6HR MAX TEMP:  72; 6HR PCP: TRACE;

MARYSVILLE     PTSUNNY   79  57  47 CALM      30.20F
OLATHE IND     MOSUNNY   80  55  42 NW8       30.19F
6HR MIN TEMP:  59; 6HR MAX TEMP:  80;

OLATHE EXE     PTSUNNY   78  55  44 NW7       30.18F
6HR MIN TEMP:  61; 6HR MAX TEMP:  79;

SALINA         MOSUNNY   85  53  33 NE10      30.18F
6HR MIN TEMP:  67; 6HR MAX TEMP:  85;

TOPEKA BILLARD PTSUNNY   78  57  48 SW9       30.19F
6HR MIN TEMP:  63; 6HR MAX TEMP:  81;

TOPEKA FORBES  PTSUNNY   81  55  40 N6        30.19F
6HR MIN TEMP:  63; 6HR MAX TEMP:  82;

$$



USA.gov is the U.S. government's official web portal to all federal, state and local government web resources and services.